contact:dominique.lefevre@mio.osupytheas.fr, maurice.libes@osupytheas.fr, didier.mallarino@osupytheas.fr
Project:EMSO http://www.emso-fr.org/EMSO-France
Depth: 2436.0 m
Title:EMSO Ligure Ouest : Data MII capteur AQUADOPP
Date,Latitude,Longitude,X_East,Y_North,Z_Up,Amplitude_X,Amplitude_Y,Amplitude_Z,Batterie,SoundSpeed,Heading,Pitch,Roll,Pressure,TIS,Speed,Direction
, degrees North, degrees East, m.s-1, m.s-1,m.s-1, 1, 1, 1, Volt, m.s-1, degree, degree, degree, dbar, degree_C, m.s-1, degree
2023-05-22T00:04:03,42.805,6.029,0.039,-0.02,-0.029,103.0,101.0,100.0,13.4,1505.2,348.6,-0.8,1.8,2471.42,13.28,0.043,117.1
2023-05-22T00:07:03,42.805,6.029,0.033,-0.022,-0.042,101.0,100.0,101.0,13.4,1505.2,324.8,-0.7,1.8,2471.422,13.28,0.039,123.7
2023-05-22T00:10:03,42.805,6.029,0.037,-0.037,-0.042,101.0,101.0,100.0,13.3,1505.2,336.0,-0.8,1.8,2471.387,13.28,0.052,135.0
2023-05-22T00:13:03,42.805,6.029,0.011,-0.024,-0.045,102.0,102.0,100.0,13.4,1505.2,339.4,-0.8,1.8,2471.378,13.28,0.026,155.4
2023-05-22T00:16:03,42.805,6.029,0.034,0.013,-0.026,101.0,101.0,100.0,13.4,1505.2,329.5,-0.8,1.8,2471.408,13.29,0.036,69.1
2023-05-22T00:19:03,42.805,6.029,0.032,-0.016,-0.039,102.0,102.0,101.0,13.4,1505.2,327.6,-0.8,1.8,2471.386,13.29,0.035,116.6
2023-05-22T00:22:03,42.805,6.029,0.029,-0.015,-0.043,100.0,102.0,100.0,13.4,1505.2,338.5,-0.7,1.8,2471.401,13.29,0.032,117.4
2023-05-22T00:25:03,42.805,6.029,0.007,-0.021,-0.057,100.0,102.0,101.0,13.4,1505.2,336.9,-0.7,1.8,2471.362,13.29,0.022,161.6
2023-05-22T00:28:03,42.805,6.029,0.031,-0.001,-0.054,101.0,103.0,99.0,13.4,1505.2,331.7,-0.8,1.8,2471.389,13.29,0.031,91.8
2023-05-22T00:31:03,42.805,6.029,0.04,-0.047,-0.051,101.0,101.0,101.0,13.4,1505.2,341.5,-0.7,1.8,2471.385,13.29,0.061,139.6
2023-05-22T00:34:03,42.805,6.029,0.015,-0.006,-0.041,101.0,101.0,100.0,13.3,1505.2,323.7,-0.8,1.8,2471.369,13.29,0.016,111.8
2023-05-22T00:37:03,42.805,6.029,0.021,-0.001,-0.023,102.0,101.0,100.0,13.4,1505.2,325.1,-0.8,1.8,2471.36,13.29,0.021,92.7
2023-05-22T00:40:03,42.805,6.029,0.022,0.021,-0.012,103.0,100.0,100.0,13.4,1505.2,330.8,-0.8,1.8,2471.347,13.29,0.03,46.3
2023-05-22T00:43:03,42.805,6.029,0.018,0.007,-0.028,101.0,101.0,100.0,13.4,1505.2,320.7,-0.7,1.8,2471.343,13.29,0.019,68.8
2023-05-22T00:46:03,42.805,6.029,0.017,-0.002,-0.026,100.0,101.0,101.0,13.4,1505.2,337.5,-0.8,1.8,2471.386,13.29,0.017,96.7
2023-05-22T00:49:03,42.805,6.029,0.019,0.004,-0.031,101.0,101.0,100.0,13.4,1505.2,324.6,-0.8,1.8,2471.389,13.29,0.019,78.1
2023-05-22T00:52:03,42.805,6.029,0.032,-0.014,-0.014,101.0,101.0,100.0,13.3,1505.2,342.8,-0.7,1.8,2471.374,13.29,0.034,113.6
2023-05-22T00:55:03,42.805,6.029,0.039,-0.017,-0.041,101.0,101.0,101.0,13.3,1505.2,321.3,-0.7,1.8,2471.309,13.29,0.042,113.5
2023-05-22T00:58:03,42.805,6.029,0.016,-0.022,-0.014,101.0,101.0,101.0,13.4,1505.2,338.8,-0.8,1.8,2471.336,13.29,0.027,144.0
2023-05-22T01:04:03,42.805,6.029,-0.014,0.013,-0.052,101.0,101.0,103.0,13.3,1505.2,325.2,-0.8,1.8,2471.353,13.28,0.019,312.9
2023-05-22T01:07:03,42.805,6.029,0.021,0.003,-0.044,101.0,102.0,101.0,13.3,1505.2,331.3,-0.8,1.8,2471.4,13.28,0.021,81.9
2023-05-22T01:10:03,42.805,6.029,0.037,-0.026,-0.018,102.0,101.0,100.0,13.4,1505.2,347.2,-0.8,1.8,2471.374,13.28,0.045,125.1
2023-05-22T01:13:03,42.805,6.029,0.029,-0.019,-0.028,101.0,101.0,102.0,13.4,1505.2,321.4,-0.8,1.8,2471.351,13.29,0.034,123.2
2023-05-22T01:16:03,42.805,6.029,0.019,-0.025,-0.054,100.0,102.0,101.0,13.4,1505.2,335.5,-0.7,1.8,2471.345,13.29,0.031,142.8
2023-05-22T01:19:03,42.805,6.029,0.028,-0.012,-0.026,103.0,101.0,102.0,13.3,1505.2,330.0,-0.8,1.8,2471.337,13.29,0.03,113.2
2023-05-22T01:22:03,42.805,6.029,0.011,0.0,-0.052,101.0,101.0,102.0,13.3,1505.2,329.9,-0.8,1.8,2471.362,13.29,0.011,90.0
2023-05-22T01:25:03,42.805,6.029,0.01,0.004,-0.038,102.0,101.0,101.0,13.4,1505.2,332.3,-0.8,1.8,2471.341,13.29,0.01,68.2
2023-05-22T01:28:03,42.805,6.029,0.025,-0.005,-0.034,102.0,102.0,101.0,13.4,1505.2,340.0,-0.8,1.8,2471.349,13.29,0.025,101.3
2023-05-22T01:31:03,42.805,6.029,0.042,0.0,0.009,101.0,101.0,101.0,13.4,1505.2,321.9,-0.8,1.8,2471.332,13.29,0.042,90.0
2023-05-22T01:34:03,42.805,6.029,0.058,-0.034,-0.054,102.0,100.0,101.0,13.4,1505.2,333.8,-0.7,1.8,2471.338,13.29,0.067,120.4
2023-05-22T01:37:03,42.805,6.029,0.005,0.002,-0.056,103.0,102.0,100.0,13.4,1505.2,331.6,-0.8,1.8,2471.306,13.29,0.005,68.2
2023-05-22T01:40:03,42.805,6.029,0.031,-0.002,-0.038,101.0,101.0,100.0,13.4,1505.2,326.0,-0.7,1.8,2471.335,13.29,0.031,93.7
2023-05-22T01:43:03,42.805,6.029,0.02,-0.016,-0.059,100.0,102.0,101.0,13.4,1505.2,344.5,-0.8,1.8,2471.301,13.29,0.025,128.7
2023-05-22T01:46:03,42.805,6.029,0.017,0.005,-0.008,100.0,102.0,100.0,13.3,1505.2,330.6,-0.8,1.8,2471.313,13.29,0.017,73.6
2023-05-22T01:49:03,42.805,6.029,0.029,0.006,-0.025,101.0,102.0,100.0,13.4,1505.2,329.4,-0.8,1.8,2471.331,13.29,0.029,78.3
2023-05-22T01:52:03,42.805,6.029,0.027,-0.004,-0.055,103.0,102.0,100.0,13.4,1505.2,326.8,-0.8,1.8,2471.306,13.29,0.027,98.4
2023-05-22T01:55:03,42.805,6.029,0.025,0.0,-0.025,102.0,103.0,100.0,13.3,1505.2,326.6,-0.8,1.8,2471.324,13.29,0.025,90.0
2023-05-22T01:58:03,42.805,6.029,0.03,-0.012,0.004,101.0,101.0,101.0,13.3,1505.2,344.2,-0.8,1.8,2471.298,13.29,0.032,111.8
2023-05-22T02:04:03,42.805,6.029,0.025,-0.002,-0.044,101.0,102.0,101.0,13.4,1505.2,336.0,-0.8,1.8,2471.343,13.28,0.025,94.6
2023-05-22T02:07:03,42.805,6.029,0.015,-0.005,-0.027,101.0,102.0,99.0,13.4,1505.2,330.7,-0.8,1.8,2471.36,13.28,0.015,108.4
2023-05-22T02:10:03,42.805,6.029,0.037,-0.005,-0.051,101.0,103.0,102.0,13.3,1505.2,340.0,-0.7,1.8,2471.314,13.28,0.037,97.7
2023-05-22T02:13:03,42.805,6.029,0.027,-0.012,-0.046,101.0,101.0,101.0,13.3,1505.2,327.9,-0.8,1.8,2471.327,13.29,0.029,114.0
2023-05-22T02:16:03,42.805,6.029,0.016,0.002,-0.043,102.0,102.0,101.0,13.4,1505.2,316.9,-0.8,1.8,2471.32,13.29,0.016,82.9
2023-05-22T02:19:03,42.805,6.029,0.016,0.001,-0.049,102.0,102.0,101.0,13.3,1505.2,336.3,-0.8,1.8,2471.305,13.29,0.016,86.4
2023-05-22T02:22:03,42.805,6.029,0.051,-0.007,-0.025,100.0,101.0,101.0,13.4,1505.2,326.5,-0.7,1.8,2471.297,13.29,0.051,97.8
2023-05-22T02:25:03,42.805,6.029,0.039,-0.003,-0.012,101.0,101.0,100.0,13.4,1505.2,340.0,-0.7,1.8,2471.296,13.29,0.039,94.4
2023-05-22T02:28:03,42.805,6.029,0.025,-0.007,-0.028,103.0,101.0,100.0,13.4,1505.2,338.9,-0.8,1.8,2471.255,13.29,0.025,105.6
2023-05-22T02:31:03,42.805,6.029,0.036,-0.016,-0.038,101.0,101.0,100.0,13.4,1505.2,326.9,-0.8,1.8,2471.275,13.29,0.039,114.0
2023-05-22T02:34:03,42.805,6.029,0.041,0.0,-0.064,101.0,100.0,101.0,13.4,1505.2,325.2,-0.8,1.8,2471.326,13.29,0.041,90.0
2023-05-22T02:37:03,42.805,6.029,0.022,0.008,-0.018,101.0,101.0,101.0,13.4,1505.2,332.5,-0.8,1.8,2471.293,13.29,0.023,70.0
2023-05-22T02:40:03,42.805,6.029,0.002,0.0,-0.044,100.0,102.0,101.0,13.4,1505.2,345.9,-0.8,1.8,2471.312,13.29,0.002,90.0
2023-05-22T02:43:03,42.805,6.029,0.011,0.016,-0.02,101.0,102.0,100.0,13.4,1505.2,322.1,-0.7,1.8,2471.265,13.29,0.019,34.5
2023-05-22T02:46:03,42.805,6.029,0.026,-0.016,-0.029,102.0,101.0,100.0,13.4,1505.2,337.5,-0.7,1.8,2471.258,13.29,0.03,121.6
2023-05-22T02:49:03,42.805,6.029,0.001,0.015,-0.017,102.0,101.0,100.0,13.3,1505.2,324.7,-0.8,1.8,2471.291,13.29,0.015,3.8
2023-05-22T02:52:03,42.805,6.029,0.011,0.001,-0.014,102.0,101.0,100.0,13.4,1505.2,328.5,-0.7,1.8,2471.287,13.29,0.011,84.8
2023-05-22T02:55:03,42.805,6.029,0.051,-0.017,0.004,103.0,101.0,100.0,13.4,1505.2,340.4,-0.8,1.9,2471.267,13.29,0.053,108.4
2023-05-22T02:58:03,42.805,6.029,0.02,-0.009,-0.044,102.0,101.0,101.0,13.4,1505.2,331.8,-0.8,1.8,2471.275,13.29,0.021,114.2
2023-05-22T03:04:03,42.805,6.029,0.021,-0.008,-0.04,102.0,102.0,99.0,13.3,1505.2,327.5,-0.7,1.8,2471.342,13.28,0.022,110.9
2023-05-22T03:07:03,42.805,6.029,0.005,-0.004,-0.042,103.0,102.0,99.0,13.4,1505.2,333.4,-0.8,1.8,2471.314,13.28,0.006,128.7
2023-05-22T03:10:03,42.805,6.029,0.021,0.001,-0.013,101.0,101.0,101.0,13.4,1505.2,325.4,-0.8,1.8,2471.315,13.29,0.021,87.3
2023-05-22T03:13:03,42.805,6.029,0.011,-0.002,-0.045,102.0,101.0,100.0,13.4,1505.2,338.4,-0.7,1.8,2471.299,13.29,0.011,100.3
2023-05-22T03:16:03,42.805,6.029,0.019,-0.003,-0.045,101.0,101.0,101.0,13.4,1505.2,347.0,-0.7,1.8,2471.306,13.29,0.019,99.0
2023-05-22T03:19:03,42.805,6.029,0.014,0.019,-0.018,102.0,101.0,100.0,13.4,1505.2,317.4,-0.8,1.9,2471.266,13.29,0.023,36.4
2023-05-22T03:22:03,42.805,6.029,0.018,-0.009,-0.037,102.0,102.0,100.0,13.4,1505.2,335.4,-0.8,1.8,2471.27,13.29,0.02,116.6
2023-05-22T03:25:03,42.805,6.029,0.022,0.008,-0.038,102.0,102.0,100.0,13.4,1505.2,337.2,-0.8,1.8,2471.302,13.29,0.023,70.0
2023-05-22T03:28:03,42.805,6.029,0.031,0.006,-0.013,102.0,100.0,100.0,13.3,1505.2,346.2,-0.8,1.8,2471.29,13.29,0.031,79.0
2023-05-22T03:31:03,42.805,6.029,0.026,-0.011,-0.012,102.0,102.0,101.0,13.4,1505.2,335.6,-0.7,1.8,2471.285,13.29,0.028,112.9
2023-05-22T03:34:03,42.805,6.029,0.0,0.001,-0.038,101.0,101.0,101.0,13.4,1505.2,328.7,-0.7,1.8,2471.28,13.29,0.001,0.0
2023-05-22T03:37:03,42.805,6.029,0.034,-0.007,-0.016,102.0,100.0,101.0,13.4,1505.2,337.5,-0.7,1.8,2471.256,13.29,0.034,101.6
2023-05-22T03:40:03,42.805,6.029,0.018,0.0,-0.026,102.0,99.0,101.0,13.4,1505.2,328.2,-0.8,1.9,2471.222,13.29,0.018,90.0
2023-05-22T03:43:03,42.805,6.029,0.036,0.007,-0.011,101.0,102.0,100.0,13.4,1505.2,344.8,-0.8,1.8,2471.287,13.29,0.036,79.0
2023-05-22T03:46:03,42.805,6.029,0.028,-0.011,-0.031,102.0,101.0,101.0,13.4,1505.2,338.2,-0.8,1.8,2471.287,13.29,0.03,111.4
2023-05-22T03:49:03,42.805,6.029,0.014,0.006,-0.047,102.0,102.0,99.0,13.4,1505.2,317.7,-0.8,1.8,2471.234,13.29,0.015,66.8
2023-05-22T03:52:03,42.805,6.029,0.039,-0.009,-0.017,101.0,101.0,101.0,13.3,1505.2,331.3,-0.7,1.8,2471.258,13.29,0.04,103.0
2023-05-22T03:55:03,42.805,6.029,0.036,0.001,-0.019,102.0,102.0,101.0,13.3,1505.2,332.1,-0.8,1.8,2471.264,13.29,0.036,88.4
2023-05-22T03:58:03,42.805,6.029,0.03,0.001,-0.042,102.0,100.0,102.0,13.3,1505.2,328.4,-0.8,1.8,2471.242,13.29,0.03,88.1
2023-05-22T04:04:03,42.805,6.029,0.028,-0.008,-0.029,101.0,101.0,101.0,13.4,1505.2,332.1,-0.8,1.8,2471.309,13.28,0.029,105.9
2023-05-22T04:07:03,42.805,6.029,0.024,-0.007,-0.006,101.0,101.0,101.0,13.4,1505.2,345.9,-0.7,1.8,2471.294,13.28,0.025,106.3
2023-05-22T04:10:03,42.805,6.029,0.026,0.022,-0.025,103.0,100.0,100.0,13.3,1505.2,333.0,-0.7,1.8,2471.284,13.28,0.034,49.8
2023-05-22T04:13:03,42.805,6.029,0.024,-0.011,-0.035,102.0,100.0,100.0,13.4,1505.2,331.2,-0.8,1.8,2471.256,13.29,0.026,114.6
2023-05-22T04:16:03,42.805,6.029,0.023,-0.032,-0.08,101.0,102.0,100.0,13.3,1505.2,329.5,-0.8,1.8,2471.299,13.29,0.039,144.3
2023-05-22T04:19:03,42.805,6.029,0.039,-0.006,-0.026,102.0,100.0,100.0,13.4,1505.2,332.0,-0.8,1.8,2471.291,13.29,0.039,98.7
2023-05-22T04:22:03,42.805,6.029,0.011,0.009,-0.041,101.0,102.0,99.0,13.3,1505.2,324.6,-0.8,1.8,2471.3,13.29,0.014,50.7
2023-05-22T04:25:03,42.805,6.029,0.017,-0.019,-0.045,101.0,101.0,100.0,13.3,1505.2,337.5,-0.8,1.8,2471.29,13.29,0.025,138.2
2023-05-22T04:28:03,42.805,6.029,0.025,-0.003,-0.035,101.0,101.0,101.0,13.4,1505.2,341.1,-0.8,1.8,2471.284,13.29,0.025,96.8
2023-05-22T04:31:03,42.805,6.029,0.037,0.019,-0.002,101.0,102.0,100.0,13.4,1505.2,317.4,-0.8,1.9,2471.273,13.29,0.041,62.8
2023-05-22T04:34:03,42.805,6.029,0.037,-0.003,-0.01,100.0,102.0,100.0,13.3,1505.2,338.2,-0.8,1.8,2471.244,13.29,0.037,94.6
2023-05-22T04:37:03,42.805,6.029,0.041,0.0,-0.022,101.0,101.0,100.0,13.4,1505.2,333.4,-0.7,1.8,2471.271,13.29,0.041,90.0
2023-05-22T04:40:03,42.805,6.029,0.018,0.001,-0.015,101.0,101.0,100.0,13.4,1505.2,344.5,-0.7,1.8,2471.252,13.29,0.018,86.8
2023-05-22T04:43:03,42.805,6.029,0.026,0.012,-0.015,101.0,101.0,100.0,13.4,1505.2,327.3,-0.8,1.8,2471.27,13.29,0.028,65.2
2023-05-22T04:46:03,42.805,6.029,0.015,-0.003,-0.046,100.0,102.0,101.0,13.4,1505.2,320.1,-0.8,1.8,2471.276,13.29,0.015,101.3
2023-05-22T04:49:03,42.805,6.029,0.016,0.02,0.033,102.0,103.0,98.0,13.3,1505.2,332.1,-0.8,1.8,2471.294,13.29,0.025,38.7
2023-05-22T04:52:03,42.805,6.029,0.019,0.002,-0.034,102.0,101.0,101.0,13.3,1505.2,326.0,-0.8,1.8,2471.28,13.29,0.019,84.0
2023-05-22T04:55:03,42.805,6.029,-0.001,0.007,-0.029,102.0,102.0,101.0,13.3,1505.2,327.6,-0.8,1.8,2471.249,13.29,0.007,351.9
2023-05-22T04:58:03,42.805,6.029,-0.003,0.004,-0.028,102.0,102.0,99.0,13.4,1505.2,322.5,-0.8,1.8,2471.266,13.29,0.005,323.1
2023-05-22T05:04:03,42.805,6.029,0.037,0.005,-0.027,101.0,100.0,101.0,13.3,1505.2,334.8,-0.8,1.8,2471.346,13.28,0.037,82.3
2023-05-22T05:07:03,42.805,6.029,0.016,-0.012,-0.024,101.0,101.0,100.0,13.3,1505.2,345.3,-0.8,1.8,2471.326,13.28,0.02,126.9
2023-05-22T05:10:03,42.805,6.029,0.02,0.02,-0.007,101.0,101.0,100.0,13.4,1505.2,321.3,-0.8,1.8,2471.342,13.29,0.028,45.0
2023-05-22T05:13:03,42.805,6.029,0.025,-0.008,-0.033,101.0,102.0,100.0,13.3,1505.2,329.1,-0.8,1.8,2471.281,13.29,0.026,107.7
2023-05-22T05:16:03,42.805,6.029,0.005,-0.031,-0.09,101.0,101.0,101.0,13.3,1505.2,338.4,-0.8,1.8,2471.304,13.29,0.031,170.8
2023-05-22T05:19:03,42.805,6.029,0.034,-0.004,-0.006,101.0,101.0,101.0,13.3,1505.2,323.6,-0.8,1.8,2471.288,13.29,0.034,96.7
2023-05-22T05:22:03,42.805,6.029,0.027,0.004,-0.012,101.0,101.0,100.0,13.4,1505.2,331.2,-0.7,1.8,2471.282,13.29,0.027,81.6
2023-05-22T05:25:03,42.805,6.029,0.036,-0.003,-0.028,102.0,102.0,101.0,13.3,1505.2,325.4,-0.8,1.8,2471.293,13.29,0.036,94.8
2023-05-22T05:28:03,42.805,6.029,-0.002,0.008,-0.016,102.0,102.0,102.0,13.3,1505.2,344.2,-0.8,1.8,2471.302,13.29,0.008,346.0
2023-05-22T05:31:03,42.805,6.029,0.016,0.018,-0.012,102.0,101.0,101.0,13.3,1505.2,325.3,-0.8,1.8,2471.319,13.29,0.024,41.6
2023-05-22T05:34:03,42.805,6.029,0.004,0.009,-0.035,101.0,102.0,100.0,13.3,1505.2,327.8,-0.8,1.8,2471.314,13.29,0.009,24.0
2023-05-22T05:37:03,42.805,6.029,0.025,-0.022,-0.034,101.0,102.0,100.0,13.4,1505.2,331.1,-0.8,1.8,2471.307,13.29,0.033,131.3
2023-05-22T05:40:03,42.805,6.029,0.008,0.026,0.002,100.0,102.0,101.0,13.3,1505.2,323.5,-0.8,1.8,2471.295,13.29,0.027,17.1
2023-05-22T05:43:03,42.805,6.029,0.008,-0.011,-0.046,102.0,101.0,100.0,13.3,1505.2,344.4,-0.7,1.8,2471.276,13.29,0.013,144.0
2023-05-22T05:46:03,42.805,6.029,0.023,-0.005,-0.045,102.0,101.0,100.0,13.3,1505.2,322.9,-0.8,1.8,2471.329,13.29,0.023,102.3
2023-05-22T05:49:03,42.805,6.029,0.016,0.011,-0.024,102.0,102.0,100.0,13.4,1505.2,322.2,-0.8,1.8,2471.313,13.29,0.019,55.5
2023-05-22T05:52:03,42.805,6.029,0.033,-0.001,-0.027,102.0,101.0,100.0,13.4,1505.2,338.8,-0.8,1.8,2471.297,13.29,0.033,91.7
2023-05-22T05:55:03,42.805,6.029,0.026,0.004,-0.025,101.0,101.0,101.0,13.4,1505.2,341.9,-0.8,1.8,2471.296,13.29,0.026,81.3
2023-05-22T05:58:03,42.805,6.029,0.027,0.026,0.001,101.0,102.0,100.0,13.3,1505.2,319.7,-0.7,1.8,2471.332,13.29,0.037,46.1
2023-05-22T06:04:03,42.805,6.029,0.015,0.002,0.007,102.0,101.0,101.0,13.3,1505.2,341.9,-0.7,1.8,2471.355,13.28,0.015,82.4
2023-05-22T06:07:03,42.805,6.029,0.0,0.008,-0.025,102.0,101.0,100.0,13.4,1505.2,340.2,-0.8,1.8,2471.374,13.28,0.008,0.0
2023-05-22T06:10:03,42.805,6.029,0.023,0.008,-0.055,100.0,101.0,101.0,13.4,1505.2,320.5,-0.8,1.8,2471.369,13.28,0.024,70.8
2023-05-22T06:13:03,42.805,6.029,0.046,0.0,-0.033,103.0,102.0,99.0,13.3,1505.2,335.2,-0.8,1.8,2471.341,13.29,0.046,90.0
2023-05-22T06:16:03,42.805,6.029,0.009,0.025,-0.044,102.0,101.0,100.0,13.3,1505.2,324.5,-0.8,1.8,2471.32,13.29,0.026,19.8
2023-05-22T06:19:03,42.805,6.029,0.016,-0.011,-0.04,101.0,101.0,101.0,13.4,1505.2,344.5,-0.8,1.8,2471.361,13.29,0.019,124.5
2023-05-22T06:22:03,42.805,6.029,-0.007,0.001,-0.046,103.0,102.0,101.0,13.4,1505.2,334.4,-0.8,1.8,2471.356,13.29,0.007,278.1
2023-05-22T06:25:03,42.805,6.029,0.02,-0.002,-0.029,102.0,101.0,101.0,13.3,1505.2,335.2,-0.8,1.8,2471.296,13.29,0.02,95.7
2023-05-22T06:28:03,42.805,6.029,0.018,0.009,-0.015,103.0,101.0,101.0,13.4,1505.2,331.2,-0.8,1.8,2471.331,13.29,0.02,63.4
2023-05-22T06:31:03,42.805,6.029,0.015,0.002,-0.032,103.0,101.0,101.0,13.4,1505.2,326.0,-0.8,1.8,2471.305,13.29,0.015,82.4
2023-05-22T06:34:03,42.805,6.029,0.007,0.013,-0.036,102.0,102.0,100.0,13.3,1505.2,326.8,-0.7,1.8,2471.324,13.29,0.014,28.3
2023-05-22T06:37:03,42.805,6.029,0.017,-0.006,-0.051,101.0,100.0,102.0,13.3,1505.2,345.9,-0.7,1.8,2471.326,13.29,0.018,109.4
2023-05-22T06:40:03,42.805,6.029,0.018,-0.004,-0.03,100.0,102.0,100.0,13.4,1505.2,330.9,-0.8,1.8,2471.34,13.29,0.018,102.5
2023-05-22T06:43:03,42.805,6.029,0.023,0.008,-0.064,101.0,103.0,100.0,13.4,1505.2,328.1,-0.8,1.8,2471.327,13.29,0.024,70.8
2023-05-22T06:46:03,42.805,6.029,0.02,0.003,-0.029,99.0,103.0,101.0,13.4,1505.2,333.0,-0.7,1.8,2471.367,13.29,0.02,81.5
2023-05-22T06:49:03,42.805,6.029,0.031,0.011,0.008,99.0,102.0,101.0,13.4,1505.2,328.2,-0.7,1.8,2471.327,13.29,0.032,70.5
2023-05-22T06:52:03,42.805,6.029,0.036,0.01,-0.022,102.0,102.0,101.0,13.3,1505.2,326.9,-0.8,1.8,2471.32,13.29,0.037,74.5
2023-05-22T06:55:03,42.805,6.029,0.017,0.008,-0.023,101.0,102.0,100.0,13.3,1505.2,327.4,-0.8,1.8,2471.369,13.29,0.018,64.8
2023-05-22T06:58:03,42.805,6.029,0.007,-0.005,-0.045,101.0,101.0,101.0,13.4,1505.2,347.3,-0.8,1.8,2471.374,13.29,0.008,125.5
2023-05-22T07:04:03,42.805,6.029,0.022,-0.018,-0.054,101.0,102.0,101.0,13.3,1505.2,338.6,-0.8,1.8,2471.377,13.28,0.028,129.3
2023-05-22T07:07:03,42.805,6.029,0.035,0.001,-0.038,102.0,102.0,100.0,13.4,1505.2,324.1,-0.7,1.8,2471.367,13.28,0.035,88.4
2023-05-22T07:10:03,42.805,6.029,0.012,0.0,-0.039,102.0,101.0,101.0,13.4,1505.2,323.5,-0.8,1.8,2471.386,13.28,0.012,90.0
2023-05-22T07:13:03,42.805,6.029,0.013,-0.002,-0.026,102.0,101.0,101.0,13.4,1505.2,341.1,-0.8,1.8,2471.374,13.29,0.013,98.7
2023-05-22T07:16:03,42.805,6.029,0.01,0.003,-0.04,101.0,101.0,101.0,13.4,1505.2,322.9,-0.8,1.8,2471.356,13.29,0.01,73.3
2023-05-22T07:19:03,42.805,6.029,0.026,-0.028,-0.054,102.0,100.0,101.0,13.4,1505.2,336.5,-0.8,1.8,2471.345,13.29,0.038,137.1
2023-05-22T07:22:03,42.805,6.029,0.013,0.0,-0.019,102.0,102.0,100.0,13.4,1505.2,336.5,-0.7,1.8,2471.358,13.29,0.013,90.0
2023-05-22T07:25:03,42.805,6.029,0.02,-0.016,-0.047,101.0,102.0,100.0,13.4,1505.2,325.8,-0.8,1.8,2471.379,13.29,0.025,128.7
2023-05-22T07:28:03,42.805,6.029,0.029,-0.007,-0.025,102.0,102.0,100.0,13.4,1505.2,338.0,-0.7,1.8,2471.392,13.29,0.029,103.6
2023-05-22T07:31:03,42.805,6.029,0.02,-0.002,-0.052,101.0,101.0,100.0,13.4,1505.2,325.2,-0.8,1.8,2471.352,13.29,0.02,95.7
2023-05-22T07:34:03,42.805,6.029,-0.002,0.004,-0.049,101.0,101.0,101.0,13.4,1505.2,338.6,-0.8,1.8,2471.359,13.29,0.004,333.4
2023-05-22T07:37:03,42.805,6.029,0.02,0.002,-0.018,102.0,102.0,101.0,13.4,1505.2,329.4,-0.8,1.8,2471.38,13.29,0.02,84.3
2023-05-22T07:40:03,42.805,6.029,0.011,0.01,-0.018,102.0,101.0,100.0,13.4,1505.2,329.2,-0.8,1.8,2471.357,13.29,0.014,47.7
2023-05-22T07:43:03,42.805,6.029,-0.012,0.011,-0.024,102.0,101.0,101.0,13.3,1505.2,328.7,-0.7,1.8,2471.353,13.29,0.016,312.5
2023-05-22T07:46:03,42.805,6.029,0.009,0.007,-0.047,102.0,101.0,101.0,13.3,1505.2,327.3,-0.8,1.8,2471.339,13.29,0.011,52.1
2023-05-22T07:49:03,42.805,6.029,0.011,0.01,-0.023,101.0,101.0,101.0,13.4,1505.2,327.7,-0.8,1.8,2471.375,13.29,0.014,47.7
2023-05-22T07:52:03,42.805,6.029,0.002,0.002,-0.039,102.0,102.0,100.0,13.4,1505.2,346.8,-0.8,1.8,2471.35,13.29,0.002,45.0
2023-05-22T07:55:03,42.805,6.029,0.039,-0.005,-0.016,102.0,102.0,101.0,13.4,1505.2,328.8,-0.7,1.8,2471.354,13.29,0.039,97.3
2023-05-22T07:58:03,42.805,6.029,0.046,0.007,0.017,101.0,102.0,101.0,13.4,1505.2,322.4,-0.8,1.8,2471.368,13.29,0.046,81.3
2023-05-22T08:04:03,42.805,6.029,-0.003,0.008,-0.03,102.0,102.0,101.0,13.3,1505.2,335.2,-0.8,1.8,2471.384,13.28,0.008,339.4
2023-05-22T08:07:03,42.805,6.029,0.016,0.017,-0.029,102.0,102.0,101.0,13.4,1505.2,328.4,-0.8,1.8,2471.391,13.28,0.023,43.3
2023-05-22T08:10:03,42.805,6.029,0.008,0.004,-0.053,102.0,100.0,101.0,13.4,1505.2,330.3,-0.8,1.8,2471.379,13.28,0.008,63.4
2023-05-22T08:13:03,42.805,6.029,0.034,-0.035,-0.054,101.0,102.0,100.0,13.4,1505.2,347.0,-0.8,1.8,2471.37,13.29,0.048,135.8
2023-05-22T08:16:03,42.805,6.029,0.025,0.005,-0.027,102.0,101.0,100.0,13.4,1505.2,335.5,-0.8,1.8,2471.386,13.29,0.025,78.7
2023-05-22T08:19:03,42.805,6.029,-0.001,0.019,-0.003,102.0,102.0,100.0,13.4,1505.2,324.8,-0.7,1.8,2471.354,13.29,0.019,357.0
2023-05-22T08:22:03,42.805,6.029,0.012,0.023,-0.021,102.0,101.0,100.0,13.4,1505.2,324.1,-0.8,1.8,2471.327,13.29,0.025,27.6
2023-05-22T08:25:03,42.805,6.029,0.035,-0.008,-0.022,101.0,102.0,101.0,13.4,1505.2,324.6,-0.8,1.8,2471.367,13.29,0.035,102.9
2023-05-22T08:28:03,42.805,6.029,0.021,-0.001,-0.02,101.0,100.0,101.0,13.3,1505.2,331.7,-0.8,1.8,2471.399,13.29,0.021,92.7
2023-05-22T08:31:03,42.805,6.029,0.011,0.0,-0.015,103.0,100.0,100.0,13.4,1505.2,346.8,-0.8,1.8,2471.352,13.29,0.011,90.0
2023-05-22T08:34:03,42.805,6.029,0.027,0.004,-0.044,102.0,101.0,101.0,13.4,1505.2,320.0,-0.8,1.8,2471.325,13.29,0.027,81.6
2023-05-22T08:37:03,42.805,6.029,0.051,-0.003,-0.027,102.0,102.0,101.0,13.4,1505.2,329.8,-0.8,1.8,2471.35,13.29,0.051,93.4
2023-05-22T08:40:03,42.805,6.029,0.001,0.013,-0.013,102.0,101.0,101.0,13.4,1505.2,328.5,-0.8,1.8,2471.355,13.29,0.013,4.4
2023-05-22T08:43:03,42.805,6.029,0.018,0.009,-0.035,102.0,102.0,100.0,13.4,1505.2,328.2,-0.8,1.8,2471.367,13.29,0.02,63.4
2023-05-22T08:46:03,42.805,6.029,0.022,0.0,-0.031,101.0,102.0,101.0,13.3,1505.2,330.1,-0.8,1.8,2471.345,13.29,0.022,90.0
2023-05-22T08:49:03,42.805,6.029,0.025,0.001,-0.033,102.0,101.0,102.0,13.4,1505.2,335.9,-0.8,1.8,2471.361,13.29,0.025,87.7
2023-05-22T08:52:03,42.805,6.029,-0.002,0.004,-0.014,102.0,101.0,101.0,13.4,1505.2,319.9,-0.8,1.8,2471.346,13.29,0.004,333.4
2023-05-22T08:55:03,42.805,6.029,0.02,-0.01,-0.046,102.0,102.0,101.0,13.4,1505.2,327.9,-0.8,1.8,2471.363,13.29,0.022,116.6
2023-05-22T08:58:03,42.805,6.029,0.018,-0.003,-0.033,102.0,101.0,101.0,13.4,1505.2,327.8,-0.7,1.8,2471.384,13.29,0.018,99.5
2023-05-22T09:04:03,42.805,6.029,0.027,-0.024,-0.031,100.0,103.0,101.0,13.3,1505.2,335.6,-0.8,1.8,2471.43,13.28,0.036,131.6
2023-05-22T09:07:03,42.805,6.029,0.024,0.011,-0.011,102.0,102.0,100.0,13.4,1505.2,340.1,-0.8,1.8,2471.398,13.28,0.026,65.4
2023-05-22T09:10:03,42.805,6.029,0.023,0.008,-0.013,101.0,101.0,101.0,13.4,1505.2,323.8,-0.7,1.8,2471.378,13.28,0.024,70.8
2023-05-22T09:13:03,42.805,6.029,0.023,-0.009,-0.032,102.0,102.0,100.0,13.4,1505.2,324.1,-0.8,1.8,2471.376,13.29,0.024,111.4
2023-05-22T09:16:03,42.805,6.029,0.021,-0.026,-0.062,102.0,102.0,101.0,13.4,1505.2,339.5,-0.7,1.8,2471.383,13.29,0.033,141.1
2023-05-22T09:19:03,42.805,6.029,0.02,-0.003,-0.007,103.0,101.0,100.0,13.4,1505.2,327.5,-0.8,1.8,2471.386,13.29,0.02,98.5
2023-05-22T09:22:03,42.805,6.029,0.013,-0.008,-0.056,102.0,102.0,100.0,13.4,1505.2,320.3,-0.7,1.8,2471.34,13.29,0.015,121.6
2023-05-22T09:25:03,42.805,6.029,0.003,0.012,-0.027,102.0,101.0,103.0,13.4,1505.2,325.4,-0.8,1.8,2471.348,13.29,0.012,14.0
2023-05-22T09:28:03,42.805,6.029,0.022,-0.014,-0.035,101.0,102.0,100.0,13.4,1505.2,339.0,-0.8,1.8,2471.355,13.29,0.026,122.5
2023-05-22T09:31:03,42.805,6.029,-0.003,0.005,-0.021,100.0,102.0,101.0,13.3,1505.2,334.4,-0.8,1.8,2471.367,13.29,0.005,329.0
2023-05-22T09:34:03,42.805,6.029,0.035,-0.003,-0.016,102.0,101.0,101.0,13.4,1505.2,321.2,-0.8,1.8,2471.334,13.29,0.035,94.9
2023-05-22T09:37:03,42.805,6.029,0.031,0.021,-0.024,101.0,102.0,101.0,13.4,1505.2,320.7,-0.8,1.8,2471.337,13.29,0.037,55.9
2023-05-22T09:40:03,42.805,6.029,0.021,-0.007,-0.016,102.0,102.0,101.0,13.4,1505.2,330.8,-0.8,1.8,2471.357,13.29,0.022,108.4
2023-05-22T09:43:03,42.805,6.029,0.008,0.009,-0.023,102.0,102.0,100.0,13.3,1505.2,327.7,-0.7,1.8,2471.322,13.29,0.012,41.6
2023-05-22T09:46:03,42.805,6.029,0.029,-0.021,-0.007,102.0,103.0,101.0,13.4,1505.2,345.9,-0.8,1.8,2471.358,13.29,0.035,125.9
2023-05-22T09:49:03,42.805,6.029,0.007,-0.014,-0.052,101.0,102.0,101.0,13.4,1505.2,334.2,-0.8,1.8,2471.293,13.29,0.015,153.4
2023-05-22T09:52:03,42.805,6.029,0.009,0.0,0.013,102.0,102.0,101.0,13.4,1505.2,326.6,-0.7,1.8,2471.374,13.29,0.009,90.0
2023-05-22T09:55:03,42.805,6.029,0.006,0.022,0.005,102.0,101.0,101.0,13.3,1505.2,325.2,-0.8,1.8,2471.339,13.29,0.022,15.3
2023-05-22T09:58:03,42.805,6.029,-0.003,0.011,-0.026,101.0,102.0,101.0,13.4,1505.2,335.5,-0.7,1.8,2471.344,13.29,0.011,344.7